CW8633 Weather Reports


Display with metric or nautical units.
time (UTC)temp
F
wind
direction
speed
MPH
gust
MPH
rain 1hr
in
rain 24hr
in
rain mn
in
humidity
%
barometer
mb
20260902115619 54 86 2.0 8.0 0.00 0.03 0.00 86 1011.1
20260902114629 54 327 2.0 4.0 0.00 0.03 0.00 86 1011.3
20260902113619 54 71 3.0 5.0 0.00 0.03 0.00 85 1011.3
20260902112633 55 71 1.0 4.0 0.00 0.03 0.00 84 1011.4
20260902111622 55 74 0.0 4.0 0.00 0.03 0.00 84 1011.7
20260902110613 56 74 1.0 4.0 0.00 0.03 0.00 84 1011.7
20260902105613 56 69 0.0 2.0 0.00 0.03 0.00 84 1011.7
20260902104628 57 69 0.0 3.0 0.00 0.03 0.00 84 1011.7
20260902103619 57 69 0.0 3.0 0.00 0.03 0.00 84 1011.7
20260902102630 57 69 2.0 4.0 0.00 0.03 0.00 84 1011.7
20260902101618 57 68 3.0 3.0 0.00 0.03 0.00 83 1011.8
20260902100613 57 67 1.0 2.0 0.00 0.03 0.00 83 1011.9
20260902095634 57 67 0.0 3.0 0.00 0.03 0.00 84 1011.9
20260902094624 57 68 0.0 2.0 0.00 0.03 0.00 84 1011.9
20260902093616 57 68 0.0 0.0 0.00 0.03 0.00 84 1012.0
20260902092613 57 68 0.0 3.0 0.00 0.03 0.00 84 1012.1
20260902091644 57 68 0.0 3.0 0.00 0.03 0.00 84 1012.1
20260902090634 57 68 0.0 2.0 0.00 0.03 0.00 83 1012.0
20260902085636 57 68 0.0 2.0 0.00 0.03 0.00 83 1011.9
20260902084645 57 68 0.0 2.0 0.00 0.03 0.00 83 1011.9
20260902083619 57 68 1.0 3.0 0.00 0.03 0.00 82 1011.9
20260902082629 58 68 0.0 0.0 0.00 0.03 0.00 82 1012.1
20260902081619 58 67 0.0 2.0 0.00 0.03 0.00 81 1012.1
20260902080630 59 67 0.0 2.0 0.00 0.03 0.00 80 1012.0
20260902075616 59 68 2.0 3.0 0.00 0.03 0.00 79 1011.9
20260902074628 59 68 0.0 3.0 0.00 0.03 0.00 78 1011.9
20260902073619 60 67 1.0 3.0 0.00 0.03 0.00 78 1011.7
20260902072651 60 74 3.0 4.0 0.00 0.03 0.00 76 1011.7
20260902071646 61 344 1.0 3.0 0.00 0.03 0.00 75 1011.9
20260902070616 61 343 3.0 4.0 0.00 0.03 0.00 76 1011.8
20260902065618 61 66 1.0 4.0 0.00 0.03 0.00 74 1011.7
20260902064630 62 11 2.0 5.0 0.00 0.03 0.00 72 1011.6
20260902063626 63 236 1.0 4.0 0.00 0.03 0.00 72 1011.6
20260902062617 63 10 0.0 4.0 0.00 0.03 0.00 71 1011.6
20260902061628 65 33 1.0 4.0 0.00 0.03 0.00 69 1011.4
20260902060628 66 9 2.0 4.0 0.00 0.03 0.00 65 1011.4
20260902055615 67 100 1.0 3.0 0.00 0.03 0.03 61 1011.4
20260902054627 67 100 1.0 9.0 0.00 0.03 0.03 60 1011.6
20260902053618 66 73 5.0 12.0 0.00 0.03 0.03 62 1011.8
20260902052629 64 98 9.0 12.0 0.00 0.03 0.03 66 1012.1
20260902051624 64 57 3.0 12.0 0.01 0.03 0.03 72 1012.2
20260902050617 63 290 9.0 17.0 0.03 0.03 0.03 77 1012.4
20260902045618 64 111 1.0 5.0 0.03 0.03 0.03 76 1011.6
20260902044628 64 325 4.0 8.0 0.03 0.03 0.03 74 1011.7
20260902043621 62 91 4.0 8.0 0.03 0.03 0.03 75 1011.7
20260902042612 62 88 6.0 8.0 0.03 0.03 0.03 78 1011.7
20260902041624 62 310 4.0 7.0 0.02 0.02 0.02 77 1012.1
20260902040619 62 128 0.0 3.0 0.00 0.00 0.00 74 1011.9
20260902035619 63 128 3.0 5.0 0.00 0.00 0.00 70 1012.0
20260902034630 64 270 0.0 2.0 0.00 0.00 0.00 67 1012.1
20260902033621 65 329 1.0 5.0 0.00 0.00 0.00 65 1011.9
20260902032614 67 294 2.0 7.0 0.00 0.00 0.00 60 1011.8
20260902031643 68 82 0.0 2.0 0.00 0.00 0.00 56 1011.7
20260902030633 68 82 0.0 0.0 0.00 0.00 0.00 56 1011.6
20260902025613 69 82 0.0 0.0 0.00 0.00 0.00 55 1011.4
20260902024624 69 82 0.0 3.0 0.00 0.00 0.00 56 1011.4
20260902023636 69 82 1.0 3.0 0.00 0.00 0.00 56 1011.4
20260902022625 70 82 0.0 0.0 0.00 0.00 0.00 59 1011.4
20260902021614 71 82 0.0 0.0 0.00 0.00 0.00 56 1011.5
20260902020625 72 82 2.0 5.0 0.00 0.00 0.00 56 1011.6
20260902015628 72 79 4.0 7.0 0.00 0.00 0.00 54 1011.7
20260902014619 73 65 2.0 6.0 0.00 0.00 0.00 53 1011.7
20260902013628 74 153 2.0 3.0 0.00 0.00 0.00 55 1011.9
20260902012618 76 153 1.0 3.0 0.00 0.00 0.00 52 1011.9
20260902011612 77 252 1.0 2.0 0.00 0.00 0.00 44 1012.1
20260902010621 78 252 0.0 4.0 0.00 0.00 0.00 44 1012.3
20260902005620 77 325 1.0 5.0 0.00 0.00 0.00 40 1012.4
20260902004631 77 167 2.0 5.0 0.00 0.00 0.00 39 1012.3
20260902003626 76 167 3.0 6.0 0.00 0.00 0.00 44 1012.4
20260902002637 75 121 3.0 7.0 0.00 0.00 0.00 44 1012.3
20260902001646 75 145 3.0 7.0 0.00 0.00 0.00 44 1012.5
20260902000614 76 286 6.0 13.0 0.00 0.00 0.00 44 1012.7
20260901235618 76 243 5.0 9.0 0.00 0.00 0.00 42 1013.2
20260901234629 76 170 6.0 11.0 0.00 0.00 0.00 41 1013.0
20260901233619 77 198 8.0 15.0 0.00 0.00 0.00 38 1012.9
20260901232630 78 219 9.0 16.0 0.00 0.00 0.00 37 1012.9
20260901231624 80 223 8.0 11.0 0.00 0.00 0.00 36 1012.7
20260901230614 81 196 6.0 10.0 0.00 0.00 0.00 37 1012.8
20260901225617 80 155 7.0 10.0 0.00 0.00 0.00 38 1012.7
20260901224628 79 215 5.0 9.0 0.00 0.00 0.00 40 1013.0
20260901223624 79 206 6.0 10.0 0.00 0.00 0.00 39 1013.0
20260901222617 80 212 4.0 11.0 0.00 0.00 0.00 39 1013.1
20260901221628 81 194 8.0 14.0 0.00 0.00 0.00 37 1013.1
20260901220619 81 232 11.0 16.0 0.00 0.00 0.00 37 1013.2
20260901215624 80 228 8.0 12.0 0.00 0.00 0.00 37 1013.5
20260901214615 80 217 6.0 10.0 0.00 0.00 0.00 41 1013.5
20260901213627 79 167 7.0 11.0 0.00 0.00 0.00 41 1013.7
20260901212638 79 188 8.0 12.0 0.00 0.00 0.00 42 1014.0
20260901211627 79 198 6.0 12.0 0.00 0.00 0.00 43 1014.4
20260901210619 78 213 4.0 10.0 0.00 0.00 0.00 45 1014.6
20260901205640 78 199 4.0 13.0 0.00 0.00 0.00 45 1014.8
20260901204628 78 232 4.0 11.0 0.00 0.00 0.00 45 1014.9
20260901203639 78 252 6.0 11.0 0.00 0.00 0.00 46 1014.9
20260901202614 77 257 6.0 12.0 0.00 0.00 0.00 45 1015.1
20260901201623 77 206 7.0 12.0 0.00 0.00 0.00 45 1015.3
20260901200615 76 241 7.0 11.0 0.00 0.00 0.00 46 1015.3
20260901195618 76 167 6.0 11.0 0.00 0.00 0.00 48 1015.3
20260901194652 75 225 4.0 8.0 0.00 0.00 0.00 48 1015.5
20260901193620 75 269 4.0 9.0 0.00 0.00 0.00 48 1015.7
20260901192629 75 216 6.0 12.0 0.00 0.00 0.00 48 1015.9
20260901191620 75 273 7.0 14.0 0.00 0.00 0.00 48 1016.0
20260901190615 74 246 5.0 10.0 0.00 0.00 0.00 49 1016.0
20260901185618 74 223 4.0 8.0 0.00 0.00 0.00 49 1016.1
20260901184630 74 236 3.0 8.0 0.00 0.00 0.00 49 1016.3
20260901183622 74 272 5.0 8.0 0.00 0.00 0.00 50 1016.4
20260901182618 73 281 3.0 9.0 0.00 0.00 0.00 52 1016.4
20260901181629 72 261 5.0 9.0 0.00 0.00 0.00 55 1016.5
20260901180628 71 284 4.0 8.0 0.00 0.00 0.00 59 1016.7
20260901175649 71 286 2.0 6.0 0.00 0.00 0.00 61 1016.8
20260901174618 70 300 3.0 5.0 0.00 0.00 0.00 64 1016.9
20260901173613 69 275 3.0 6.0 0.00 0.00 0.00 64 1017.0
20260901172624 69 261 2.0 5.0 0.00 0.00 0.00 66 1017.0
20260901171635 68 319 2.0 8.0 0.00 0.00 0.00 67 1017.1
20260901170646 68 327 3.0 6.0 0.00 0.00 0.00 68 1017.1
20260901165631 68 326 2.0 4.0 0.00 0.00 0.00 70 1017.1
20260901164623 67 278 2.0 5.0 0.00 0.00 0.00 69 1017.0
20260901163631 66 320 3.0 6.0 0.00 0.00 0.00 71 1017.1
20260901162641 65 288 1.0 4.0 0.00 0.00 0.00 71 1017.1
20260901161613 65 220 2.0 5.0 0.00 0.00 0.00 72 1017.1
20260901160623 65 277 2.0 4.0 0.00 0.00 0.00 73 1017.2
20260901155624 64 242 2.0 4.0 0.00 0.00 0.00 75 1017.1
20260901154615 63 239 1.0 7.0 0.00 0.00 0.00 74 1017.2
20260901153630 63 204 3.0 5.0 0.00 0.00 0.00 76 1017.2
20260901152639 62 237 2.0 5.0 0.00 0.00 0.00 79 1017.3
20260901151628 61 217 2.0 4.0 0.00 0.00 0.00 81 1017.4
20260901150618 60 246 1.0 4.0 0.00 0.00 0.00 83 1017.3
20260901145622 60 247 2.0 4.0 0.00 0.00 0.00 84 1017.3
20260901144612 59 245 2.0 5.0 0.00 0.00 0.00 84 1017.4
20260901143623 59 236 3.0 5.0 0.00 0.00 0.00 85 1017.4
20260901142633 58 190 2.0 3.0 0.00 0.00 0.00 85 1017.3
20260901141627 57 132 1.0 2.0 0.00 0.00 0.00 86 1017.3
20260901140618 56 132 0.0 3.0 0.00 0.00 0.00 87 1017.2
20260901135618 55 132 2.0 3.0 0.00 0.00 0.00 86 1017.3
20260901134626 55 119 1.0 2.0 0.00 0.00 0.00 85 1017.1
20260901133636 55 118 1.0 2.0 0.00 0.00 0.00 85 1017.0
20260901132628 55 118 2.0 4.0 0.00 0.00 0.00 85 1016.9
20260901131620 55 124 0.0 2.0 0.00 0.00 0.00 86 1016.9
20260901130612 55 124 1.0 3.0 0.00 0.00 0.00 86 1016.7
20260901125634 55 124 2.0 4.0 0.00 0.00 0.00 86 1016.8
20260901124648 55 124 0.0 3.0 0.00 0.00 0.00 87 1016.8
20260901123618 55 124 1.0 3.0 0.00 0.00 0.00 87 1016.9
20260901122628 56 241 1.0 3.0 0.00 0.00 0.00 87 1016.9
20260901121618 56 243 1.0 3.0 0.00 0.00 0.00 87 1016.9
20260901120614 57 243 0.0 0.0 0.00 0.00 0.00 86 1016.8